sat.trackr.live / text

‹ back to catalog

STARLINK-2076

NORAD 47362 · 2021-005P

PAYLOAD ACTIVE UNKNOWN

§ Identity

Operator
Country
US
Launch date
2021-01-20
Launch site
AFETR
Launch vehicle
Mass (kg)
RCS (m²)

Purposes: comms

External: N2YO · Heavens-Above · Gunter

§ Orbital elements

Epoch: 2026-05-25T01:47:02.658048Z

Period
93.87 min
Inclination
53.1587°
Eccentricity
0.0001725
Mean motion
15.33979082 rev/d
Perigee alt
462.8 km
Apogee alt
465.1 km
Semi-major
6,842.1 km
B*
1.1699e-3
RAAN
66.9943°
Arg perigee
111.7254°
Mean anomaly
248.3932°
Rev number
29,473

§ Raw data

STARLINK-20761 47362U 21005P   26145.07433632  .00038830  00000+0  11699-2 0  99952 47362  53.1587  66.9943 0001725 111.7254 248.3932 15.33979082294739

JSON: /api/v1/satellites/47362 · /tle

For live sub-satellite position, see the globe view (requires WebGL).

§ Visibility from observer

Set your observer location to see the next 7 days of passes ≥ 10°. The values pass through the URL so the page stays shareable.

No JS? Fill the form by hand. The geolocation button needs JavaScript.